3 Oct
2006
3 Oct
'06
10:28 p.m.
ISS 1 25544U 98067A 06276.97028935 .00020243 00000-0 12773-3 0 7930 2 25544 051.6374 347.0703 0012850 057.2301 306.7786 15.76531553450328
6653
Age (days ago)
6653
Last active (days ago)
0 comments
1 participants
participants (1)
-
Dave Larsen PhD